Torna al catalogo

COSMOS 374 DEB

AttivoLEO
NORAD 14122·DEBRIS·🇷🇺 Russia

Lanciato Oct 23, 1970 da Baikonur Cosmodrome

Loading…

Prossimi Passaggi (prossime 24 ore)

TLE

AggiornatoSource: Space-Track

Epoca: Sep 14, 2026, 17:59 UTC

1 14122U 70089CW  26257.74976623  .00029428  00000-0  17033-2 0  9991
2 14122  62.8629  71.6947 0217551  35.7030 325.8392 14.94310682253996

Traccia COSMOS 374 DEB in tempo reale con AllMySat

Download on the App Store